This demonstration page uses our WeatherBlox Daily Observations layout. Learn more.

Left ArrowRight Arrow

40.92945, -100.16068

Hourly Observations for June 17, 2016

Temp ( °F °C ) Dew Point ( °F °C ) Humidity (%) Winds ( mph kmh ) Pressure ( in mb ) Visibility ( mi km ) Precip ( " mm )
12:15 am 00:15 Clear 78 25.3 66 19 68 68 SSE 9 15 29.74 1007 10 16 N/A
12:35 am 00:35 Clear 78 25.5 66 18.8 67 67 SE 8 13 29.77 1008 10 16 N/A
12:55 am 00:55 Clear 77 25 66 18.8 69 69 SE 7 11 29.77 1008 10 16 N/A
1:15 am 01:15 Clear 76 24.5 66 18.9 71 71 ESE 3 6 29.77 1008 10 16 N/A
1:35 am 01:35 Clear 72 22.4 65 18.4 78 78 E 6 9 29.77 1008 10 16 N/A
1:55 am 01:55 Clear 71 21.7 65 18.5 82 82 E 5 7 29.80 1009 10 16 N/A
2:15 am 02:15 Clear 74 23.2 66 18.9 77 77 SE 6 9 29.77 1008 10 16 N/A
2:35 am 02:35 Clear 75 23.8 66 18.8 74 74 N N/A 29.77 1008 10 16 N/A
2:55 am 02:55 Clear 70 21 65 18.5 86 86 E 6 9 29.83 1010 10 16 N/A
3:15 am 03:15 Clear 69 20.7 65 18.3 86 86 N N/A 29.80 1009 10 16 N/A
3:35 am 03:35 Clear 68 20 64 17.7 87 87 NE 3 6 29.80 1009 7 11 N/A
3:55 am 03:55 Clear 67 19.6 64 17.9 90 90 E 6 9 29.80 1009 7 11 N/A
4:15 am 04:15 Clear 67 19.5 64 18 91 91 ENE 3 6 29.83 1010 7 11 N/A
4:35 am 04:35 Clear 67 19.4 64 17.9 91 91 E 5 7 29.83 1010 7 11 N/A
4:55 am 04:55 Clear with Mist and Fog 67 19.2 64 17.8 92 92 E 3 6 29.83 1010 5 8 N/A
5:15 am 05:15 Clear 67 19.6 65 18.1 91 91 ESE 5 7 29.83 1010 7 11 N/A
5:35 am 05:35 Clear with Mist and Fog 67 19.2 64 18 93 93 E 3 6 29.83 1010 5 8 N/A
5:55 am 05:55 Clear with Mist and Fog 67 19.5 65 18.4 93 93 E 6 9 29.83 1010 5 8 N/A
6:15 am 06:15 Sunny with Mist and Fog 70 21 67 19.6 92 92 ESE 3 6 29.85 1011 4 6 N/A
6:35 am 06:35 Sunny with Mist and Fog 69 20.4 66 19.1 92 92 N N/A 29.85 1011 3 5 N/A
6:55 am 06:55 Sunny with Mist and Fog 67 19.7 65 18.5 93 93 ENE 5 7 29.85 1011 2 3 N/A
7:15 am 07:15 Sunny with Mist and Fog 70 21 68 19.9 93 93 E 3 6 29.88 1012 3 4 N/A
7:35 am 07:35 Sunny with Mist and Fog 73 22.7 70 21 90 90 ESE 6 9 29.88 1012 5 8 N/A
7:55 am 07:55 Sunny with Mist and Fog 74 23.5 69 20.8 85 85 SE 5 7 29.85 1011 5 8 N/A
8:15 am 08:15 Sunny 76 24.5 70 21 81 81 E 5 7 29.85 1011 7 11 N/A
8:35 am 08:35 Sunny 76 24.7 70 20.9 79 79 SE 3 6 29.85 1011 7 11 N/A
8:55 am 08:55 Sunny 78 25.6 70 21 76 76 SSE 6 9 29.85 1011 7 11 N/A
9:15 am 09:15 Sunny 79 26.3 70 21 73 73 ESE 6 9 29.85 1011 10 16 N/A
9:35 am 09:35 Sunny 81 27.1 70 21.1 70 70 ESE 5 7 29.85 1011 10 16 N/A
9:55 am 09:55 Sunny 82 28 71 21.5 68 68 SE 6 9 29.85 1011 10 16 N/A
10:15 am 10:15 Sunny 84 28.9 71 21.8 66 66 ESE 5 7 29.83 1010 10 16 N/A
10:35 am 10:35 Sunny 86 29.8 71 21.9 63 63 SSE 5 7 29.85 1011 10 16 N/A
10:55 am 10:55 Sunny 87 30.7 71 21.9 59 59 SE 8 13 29.83 1010 10 16 N/A
11:15 am 11:15 Sunny 89 31.4 71 21.7 56 56 SSE 7 11 29.83 1010 10 16 N/A
11:35 am 11:35 Sunny 90 32 71 21.6 54 54 SE 9 15 29.83 1010 10 16 N/A
11:55 am 11:55 Sunny 91 32.7 70 21.3 51 51 SSE 10 17 29.83 1010 10 16 N/A
12:15 pm 12:15 Sunny 92 33.2 70 21 49 49 SE 10 17 29.83 1010 10 16 N/A
12:35 pm 12:35 Sunny 92 33.5 69 20.6 47 47 SSE 14 22 29.83 1010 10 16 N/A
12:55 pm 12:55 Sunny 93 34 69 20.4 45 45 SE 9 15 29.83 1010 10 16 N/A
1:15 pm 13:15 Sunny 94 34.5 68 20.2 43 43 ESE 9 15 29.80 1009 10 16 N/A
1:35 pm 13:35 Partly Cloudy 94 34.3 67 19.7 42 42 SE 7 11 29.83 1010 10 16 N/A
1:55 pm 13:55 Partly Cloudy 95 35.1 69 20.3 42 42 E 7 11 29.80 1009 10 16 N/A
2:15 pm 14:15 Mostly Cloudy 95 35 67 19.7 41 41 SE 5 7 29.80 1009 10 16 N/A
2:35 pm 14:35 Mostly Cloudy 96 35.5 65 18.3 36 36 SSE 9 15 29.80 1009 10 16 N/A
2:55 pm 14:55 Partly Cloudy 95 35.1 65 18.6 38 38 SE 7 11 29.80 1009 10 16 N/A
3:15 pm 15:15 Partly Cloudy 96 35.8 64 17.5 34 34 SE 9 15 29.77 1008 10 16 N/A
3:35 pm 15:35 Partly Cloudy 96 35.5 64 18 35 35 SSW 6 9 29.77 1008 10 16 N/A
3:55 pm 15:55 Partly Cloudy 95 34.8 64 17.8 36 36 N N/A 29.77 1008 10 16 N/A
4:15 pm 16:15 Sunny 97 36 63 17.2 33 33 SE 9 15 29.77 1008 10 16 N/A
4:35 pm 16:35 Sunny 95 34.8 64 17.7 36 36 ESE 6 9 29.77 1008 10 16 N/A
4:55 pm 16:55 Sunny 93 34.1 64 17.7 38 38 SE 6 9 29.77 1008 10 16 N/A
5:15 pm 17:15 Sunny with Nearby Thunderstorms 94 34.6 64 17.5 36 36 E 6 9 29.74 1007 10 16 N/A
5:35 pm 17:35 Partly Cloudy 91 32.9 68 20.2 47 47 NNE 6 9 29.77 1008 10 16 N/A
5:55 pm 17:55 Mostly Cloudy 89 31.7 67 19.6 49 49 N 12 19 29.77 1008 10 16 N/A
6:15 pm 18:15 Partly Cloudy 86 30 68 19.9 55 55 NE 9 15 29.74 1007 10 16 N/A
6:35 pm 18:35 Partly Cloudy with Nearby Thunderstorms 86 30 68 19.8 54 54 N 12 19 29.74 1007 10 16 N/A
6:55 pm 18:55 Mostly Cloudy with Thunderstorms 85 29.5 69 20.4 58 58 N 16 26 29.77 1008 10 16 N/A
7:15 pm 19:15 Cloudy with Strong Thunderstorms 78 25.4 62 16.9 59 59 WNW 26 43 29.83 1010 7 11 0.02 0.51
7:35 pm 19:35 Cloudy with Strong Thunderstorms 65 18.2 59 15 82 82 WNW 9 15 29.97 1015 1 2 0.54 13.72
7:55 pm 19:55 Cloudy with Strong Thunderstorms 67 19.4 59 15 76 76 NNE 22 35 30.03 1017 1 2 1.79 45.47
8:15 pm 20:15 Cloudy with Thunderstorms 68 19.8 64 17.9 89 89 SSW 16 26 30.03 1017 4 6 0.29 7.37
8:35 pm 20:35 Cloudy with Thunderstorms 68 19.9 63 17.3 85 85 SSE 8 13 30.09 1019 7 11 0.36 9.14
9:00 pm 21:00 Cloudy 70 21 61 16.1 74 74 SSE 13 20 30.06 1018 7 11 N/A
9:15 pm 21:15 Cloudy with Thunderstorms 68 20.2 63 17 82 82 SSE 13 20 30.09 1019 10 16 0.03 0.76
9:35 pm 21:35 Cloudy with Rain 67 19.6 63 17 85 85 S 10 17 30.09 1019 7 11 0.11 2.79
9:55 pm 21:55 Cloudy with Nearby Thunderstorms 67 19.4 62 16.9 86 86 SSW 15 24 30.06 1018 7 11 0.17 4.32
10:15 pm 22:15 Cloudy with Light Rain 67 19.4 61 16.1 81 81 WSW 8 13 30.06 1018 10 16 0.03 0.76
10:35 pm 22:35 Cloudy 67 19.3 61 16.3 83 83 WNW 12 19 30.03 1017 10 16 0.06 1.52
10:55 pm 22:55 Cloudy with Light Rain 66 19.1 61 16.2 83 83 WSW 16 26 30.00 1016 10 16 0.08 2.03
11:15 pm 23:15 Mostly Cloudy with Light Rain 70 20.9 58 14.7 68 68 W 9 15 29.97 1015 10 16 N/A
11:35 pm 23:35 Partly Cloudy 69 20.4 60 15.4 73 73 N 10 17 30.03 1017 10 16 N/A
11:55 pm 23:55 Clear 68 20.1 60 15.5 75 75 NNW 15 24 30.03 1017 10 16 N/A

Powered by AerisWeather